EW3662 Weather Reports


Display with metric or nautical units.
time (UTC)temp
F
wind
direction
speed
MPH
gust
MPH
rain 1hr
in
rain 24hr
in
rain mn
in
humidity
%
barometer
mb
20260903005358 77 0 5.0 11.0 0.00 0.00 0.00 46 1015.4
20260903004858 78 0 5.0 11.0 0.00 0.00 0.00 45 1015.3
20260903004356 78 0 5.0 11.0 0.00 0.00 0.00 47 1015.3
20260903004129 78 0 5.0 11.0 0.00 0.00 0.00 47 1015.4
20260903003626 77 0 5.0 11.0 0.00 0.00 0.00 47 1015.6
20260903002855 77 0 5.0 9.0 0.00 0.00 0.00 47 1015.7
20260903002355 77 0 5.0 9.0 0.00 0.00 0.00 48 1015.8
20260903001855 77 0 6.0 12.0 0.00 0.00 0.00 48 1016.0
20260903001354 77 0 7.0 13.0 0.00 0.00 0.00 46 1015.9
20260903000853 77 0 7.0 14.0 0.00 0.00 0.00 44 1015.8
20260903000625 77 0 9.0 16.0 0.00 0.00 0.00 45 1015.8
20260903000123 77 0 11.0 16.0 0.00 0.00 0.00 46 1015.7
20260902235352 77 0 11.0 18.0 0.00 0.00 0.00 46 1015.7
20260902235129 78 0 12.0 20.0 0.00 0.00 0.00 44 1015.7
20260902234852 77 0 11.0 18.0 0.00 0.00 0.00 45 1015.8
20260902233852 79 0 15.0 28.0 0.00 0.00 0.00 43 1015.6
20260902233352 80 0 13.0 28.0 0.00 0.00 0.00 40 1015.3
20260902232850 83 0 6.0 21.0 0.00 0.00 0.00 34 1015.7
20260902232350 85 267 4.0 9.0 0.00 0.00 0.00 32 1015.7
20260902231850 85 0 3.0 7.0 0.00 0.00 0.00 32 1015.2
20260902231352 86 0 4.0 8.0 0.00 0.00 0.00 32 1014.7
20260902230851 86 147 5.0 11.0 0.00 0.00 0.00 28 1014.5
20260902230349 86 0 5.0 11.0 0.00 0.00 0.00 27 1014.4
20260902225848 87 0 6.0 13.0 0.00 0.00 0.00 27 1014.4
20260902225621 87 136 5.0 13.0 0.00 0.00 0.00 27 1014.3
20260902224848 87 107 4.0 10.0 0.00 0.00 0.00 27 1014.2
20260902224348 88 0 5.0 13.0 0.00 0.00 0.00 25 1014.1
20260902223849 89 0 6.0 13.0 0.00 0.00 0.00 25 1014.2
20260902223348 89 0 7.0 12.0 0.00 0.00 0.00 28 1014.1
20260902222849 89 0 7.0 12.0 0.00 0.00 0.00 26 1013.9
20260902222348 89 0 6.0 11.0 0.00 0.00 0.00 26 1013.9
20260902221848 89 0 4.0 11.0 0.00 0.00 0.00 29 1014.2
20260902221349 89 155 5.0 12.0 0.00 0.00 0.00 25 1014.2
20260902220850 89 158 7.0 13.0 0.00 0.00 0.00 24 1014.2
20260902220620 89 163 9.0 16.0 0.00 0.00 0.00 25 1014.2
20260902220120 89 0 8.0 16.0 0.00 0.00 0.00 26 1014.3
20260902215350 90 0 7.0 16.0 0.00 0.00 0.00 26 1014.3
20260902214848 89 115 7.0 16.0 0.00 0.00 0.00 27 1014.4
20260902214347 89 119 7.0 13.0 0.00 0.00 0.00 25 1014.4
20260902213847 89 111 9.0 16.0 0.00 0.00 0.00 28 1014.4
20260902213617 89 0 9.0 16.0 0.00 0.00 0.00 27 1014.5
20260902212846 89 0 9.0 16.0 0.00 0.00 0.00 26 1014.5
20260902212346 89 0 7.0 16.0 0.00 0.00 0.00 27 1014.6
20260902211846 89 82 8.0 16.0 0.00 0.00 0.00 27 1014.6
20260902211346 89 0 9.0 18.0 0.00 0.00 0.00 27 1014.6
20260902211118 89 0 7.0 18.0 0.00 0.00 0.00 27 1014.6
20260902210348 89 0 7.0 16.0 0.00 0.00 0.00 25 1014.9
20260902205847 89 0 7.0 16.0 0.00 0.00 0.00 24 1015.0
20260902205344 89 167 6.0 13.0 0.00 0.00 0.00 27 1015.1
20260902204846 89 144 8.0 21.0 0.00 0.00 0.00 25 1015.2
20260902204345 89 0 9.0 21.0 0.00 0.00 0.00 26 1015.3
20260902203844 89 0 9.0 15.0 0.00 0.00 0.00 27 1015.3
20260902203350 89 107 8.0 14.0 0.00 0.00 0.00 27 1015.4
20260902203346 89 0 9.0 15.0 0.00 0.00 0.00 27 1015.4
20260902202344 89 0 6.0 14.0 0.00 0.00 0.00 27 1015.6
20260902201845 89 0 6.0 15.0 0.00 0.00 0.00 27 1015.7
20260902201344 88 0 8.0 15.0 0.00 0.00 0.00 27 1015.7
20260902200842 88 0 8.0 16.0 0.00 0.00 0.00 26 1015.7
20260902200344 88 0 8.0 16.0 0.00 0.00 0.00 28 1015.8
20260902195842 88 128 7.0 14.0 0.00 0.00 0.00 27 1015.9
20260902195343 88 121 7.0 13.0 0.00 0.00 0.00 27 1015.9
20260902194842 88 0 7.0 16.0 0.00 0.00 0.00 26 1015.9
20260902194343 88 0 6.0 16.0 0.00 0.00 0.00 26 1016.0
20260902193843 88 0 5.0 11.0 0.00 0.00 0.00 26 1016.0
20260902193342 87 0 6.0 13.0 0.00 0.00 0.00 26 1016.1
20260902193114 88 158 6.0 13.0 0.00 0.00 0.00 28 1016.2
20260902192619 87 171 6.0 13.0 0.00 0.00 0.00 27 1016.5
20260902192343 87 0 6.0 13.0 0.00 0.00 0.00 29 1016.4
20260902191342 87 127 6.0 13.0 0.00 0.00 0.00 30 1016.5
20260902190842 86 0 7.0 12.0 0.00 0.00 0.00 28 1016.5
20260902190614 86 0 7.0 13.0 0.00 0.00 0.00 29 1016.6
20260902185847 86 0 7.0 11.0 0.00 0.00 0.00 27 1016.8
20260902185843 86 0 7.0 13.0 0.00 0.00 0.00 27 1016.7
20260902184842 86 0 7.0 11.0 0.00 0.00 0.00 27 1016.9
20260902184343 85 111 7.0 15.0 0.00 0.00 0.00 29 1017.1
20260902183842 85 94 8.0 15.0 0.00 0.00 0.00 30 1017.2
20260902183343 85 82 8.0 13.0 0.00 0.00 0.00 29 1017.2
20260902182843 85 0 7.0 13.0 0.00 0.00 0.00 30 1017.3
20260902182615 85 131 7.0 13.0 0.00 0.00 0.00 30 1017.4
20260902181842 85 0 7.0 15.0 0.00 0.00 0.00 30 1017.5
20260902181340 85 0 8.0 15.0 0.00 0.00 0.00 30 1017.6
20260902180841 84 0 8.0 14.0 0.00 0.00 0.00 30 1017.8
20260902180339 84 0 7.0 14.0 0.00 0.00 0.00 31 1017.9
20260902180113 84 0 7.0 13.0 0.00 0.00 0.00 31 1017.9
20260902175340 83 117 8.0 13.0 0.00 0.00 0.00 31 1018.0
20260902174840 83 0 8.0 13.0 0.00 0.00 0.00 31 1018.0
20260902174341 83 0 8.0 14.0 0.00 0.00 0.00 32 1018.1
20260902173840 83 117 8.0 14.0 0.00 0.00 0.00 32 1018.2
20260902173338 83 0 8.0 13.0 0.00 0.00 0.00 33 1018.2
20260902172840 83 137 7.0 14.0 0.00 0.00 0.00 34 1018.3
20260902172338 83 0 7.0 14.0 0.00 0.00 0.00 34 1018.3
20260902171838 83 0 7.0 13.0 0.00 0.00 0.00 34 1018.3
20260902171338 83 0 7.0 12.0 0.00 0.00 0.00 35 1018.3
20260902171108 83 0 7.0 14.0 0.00 0.00 0.00 36 1018.4
20260902170336 82 0 6.0 14.0 0.00 0.00 0.00 34 1018.6
20260902165837 82 134 6.0 10.0 0.00 0.00 0.00 34 1018.6
20260902165337 82 0 6.0 11.0 0.00 0.00 0.00 35 1018.7
20260902165108 82 154 6.0 11.0 0.00 0.00 0.00 35 1018.7
20260902164336 81 0 5.0 11.0 0.00 0.00 0.00 34 1018.7
20260902164106 81 0 5.0 10.0 0.00 0.00 0.00 35 1018.7
20260902163337 80 111 5.0 10.0 0.00 0.00 0.00 34 1018.7
20260902162837 80 123 4.0 7.0 0.00 0.00 0.00 36 1018.7
20260902162337 80 129 3.0 6.0 0.00 0.00 0.00 38 1018.7
20260902162105 79 119 3.0 7.0 0.00 0.00 0.00 40 1018.7
20260902161334 78 113 2.0 7.0 0.00 0.00 0.00 38 1018.7
20260902160833 78 0 2.0 8.0 0.00 0.00 0.00 39 1018.7
20260902160331 77 150 3.0 8.0 0.00 0.00 0.00 38 1018.8
20260902155832 77 0 4.0 8.0 0.00 0.00 0.00 41 1018.7
20260902155602 76 137 4.0 9.0 0.00 0.00 0.00 42 1018.7
20260902154834 75 0 2.0 6.0 0.00 0.00 0.00 45 1018.7
20260902154830 76 0 3.0 9.0 0.00 0.00 0.00 43 1018.8
20260902153828 75 134 3.0 6.0 0.00 0.00 0.00 46 1018.7
20260902153326 74 0 3.0 6.0 0.00 0.00 0.00 47 1018.7
20260902152828 73 0 3.0 7.0 0.00 0.00 0.00 47 1018.7
20260902152328 72 0 1.0 7.0 0.00 0.00 0.00 48 1018.7
20260902152057 71 0 1.0 6.0 0.00 0.00 0.00 50 1018.6
20260902151327 69 0 1.0 6.0 0.00 0.00 0.00 53 1018.7
20260902150828 68 0 0.0 3.0 0.00 0.00 0.00 54 1018.6
20260902150324 66 270 0.0 1.0 0.00 0.00 0.00 55 1018.7
20260902150058 65 0 0.0 2.0 0.00 0.00 0.00 54 1018.7
20260902145325 65 0 0.0 2.0 0.00 0.00 0.00 56 1018.7
20260902145056 64 0 0.0 1.0 0.00 0.00 0.00 59 1018.4
20260902144556 64 260 0.0 1.0 0.00 0.00 0.00 60 1018.6
20260902143826 63 0 0.0 0.0 0.00 0.00 0.00 62 1018.6
20260902143326 63 0 0.0 0.0 0.00 0.00 0.00 61 1018.6
20260902142824 62 0 0.0 3.0 0.00 0.00 0.00 65 1018.6
20260902142557 62 261 1.0 3.0 0.00 0.00 0.00 65 1018.6
20260902141824 62 0 0.0 3.0 0.00 0.00 0.00 68 1018.7
20260902141326 61 0 0.0 3.0 0.00 0.00 0.00 68 1018.4
20260902140825 61 0 1.0 3.0 0.00 0.00 0.00 70 1018.6
20260902140324 60 0 1.0 3.0 0.00 0.00 0.00 72 1018.3
20260902135822 60 0 1.0 3.0 0.00 0.00 0.00 72 1018.3
20260902135322 59 0 0.0 2.0 0.00 0.00 0.00 75 1018.3
20260902135058 58 297 0.0 2.0 0.00 0.00 0.00 76 1018.2
20260902134820 59 0 0.0 2.0 0.00 0.00 0.00 75 1018.2
20260902134048 58 0 0.0 2.0 0.00 0.00 0.00 76 1018.3
20260902133317 58 0 1.0 2.0 0.00 0.00 0.00 76 1018.2
20260902132814 57 0 1.0 2.0 0.00 0.00 0.00 76 1018.1
20260902132316 57 0 0.0 2.0 0.00 0.00 0.00 77 1018.1
20260902131816 56 277 0.0 2.0 0.00 0.00 0.00 76 1018.2
20260902131314 56 293 0.0 1.0 0.00 0.00 0.00 75 1018.2
20260902130816 56 293 0.0 1.0 0.00 0.00 0.00 75 1018.1
20260902130316 56 0 0.0 1.0 0.00 0.00 0.00 75 1018.0
20260902130045 56 0 0.0 2.0 0.00 0.00 0.00 75 1018.0
20260902125315 56 0 0.0 2.0 0.00 0.00 0.00 76 1018.0
20260902124815 56 290 0.0 1.0 0.00 0.00 0.00 75 1018.0
20260902124316 57 291 0.0 1.0 0.00 0.00 0.00 75 1018.0
20260902123813 57 0 0.0 1.0 0.00 0.00 0.00 74 1018.0
20260902123314 57 290 1.0 2.0 0.00 0.00 0.00 74 1018.0
20260902122812 57 292 1.0 3.0 0.00 0.00 0.00 76 1017.9
20260902122313 57 298 1.0 3.0 0.00 0.00 0.00 76 1017.8
20260902121812 57 270 0.0 2.0 0.00 0.00 0.00 77 1017.8
20260902121314 57 0 0.0 2.0 0.00 0.00 0.00 77 1017.6
20260902120812 57 0 0.0 2.0 0.00 0.00 0.00 77 1017.8
20260902120314 57 0 0.0 2.0 0.00 0.00 0.00 76 1017.8
20260902115812 57 0 0.0 2.0 0.00 0.00 0.00 76 1017.9
20260902115314 57 0 0.0 2.0 0.00 0.00 0.00 76 1017.8
20260902114813 57 277 1.0 2.0 0.00 0.00 0.00 75 1017.8
20260902114544 57 0 1.0 3.0 0.00 0.00 0.00 76 1017.6
20260902113812 57 0 1.0 3.0 0.00 0.00 0.00 76 1017.8
20260902113314 57 284 1.0 2.0 0.00 0.00 0.00 76 1017.6
20260902112812 57 288 0.0 1.0 0.00 0.00 0.00 76 1017.6
20260902112313 57 0 0.0 1.0 0.00 0.00 0.00 75 1017.8
20260902111814 57 287 0.0 1.0 0.00 0.00 0.00 74 1017.8
20260902111314 57 288 0.0 1.0 0.00 0.00 0.00 75 1017.8
20260902110812 57 289 0.0 1.0 0.00 0.00 0.00 76 1017.8
20260902110313 57 288 0.0 1.0 0.00 0.00 0.00 74 1017.8
20260902105814 57 289 0.0 2.0 0.00 0.00 0.00 74 1017.6
20260902105546 57 290 0.0 2.0 0.00 0.00 0.00 73 1017.8
20260902104813 57 0 0.0 2.0 0.00 0.00 0.00 71 1017.6
20260902104312 57 0 1.0 2.0 0.00 0.00 0.00 71 1017.5
20260902103814 57 0 1.0 2.0 0.00 0.00 0.00 72 1017.6
20260902103313 58 284 0.0 2.0 0.00 0.00 0.00 73 1017.6
20260902102812 58 286 0.0 2.0 0.00 0.00 0.00 72 1017.6
20260902102314 58 286 1.0 2.0 0.00 0.00 0.00 72 1017.6
20260902101813 58 0 0.0 2.0 0.00 0.00 0.00 71 1017.6
20260902101313 58 0 0.0 1.0 0.00 0.00 0.00 71 1017.6
20260902100812 58 290 0.0 0.0 0.00 0.00 0.00 71 1017.6
20260902100312 58 290 0.0 1.0 0.00 0.00 0.00 70 1017.6
20260902100044 58 0 0.0 1.0 0.00 0.00 0.00 70 1017.8
20260902095312 58 290 0.0 1.0 0.00 0.00 0.00 70 1017.8
20260902094814 58 0 0.0 1.0 0.00 0.00 0.00 71 1017.6
20260902094314 58 0 0.0 1.0 0.00 0.00 0.00 72 1017.6
20260902093812 58 0 0.0 1.0 0.00 0.00 0.00 73 1017.8
20260902093314 59 0 0.0 1.0 0.00 0.00 0.00 69 1017.8
20260902092813 59 0 0.0 1.0 0.00 0.00 0.00 69 1017.9
20260902092312 59 292 0.0 2.0 0.00 0.00 0.00 69 1018.0
20260902091813 59 0 1.0 2.0 0.00 0.00 0.00 70 1017.9
20260902091546 59 0 1.0 2.0 0.00 0.00 0.00 70 1017.9
20260902090814 59 0 1.0 2.0 0.00 0.00 0.00 68 1017.8
20260902090313 59 0 1.0 3.0 0.00 0.00 0.00 69 1017.8
20260902085813 59 0 1.0 3.0 0.00 0.00 0.00 68 1017.8
20260902085312 59 0 1.0 3.0 0.00 0.00 0.00 69 1017.9
20260902084813 60 0 1.0 2.0 0.00 0.00 0.00 69 1017.9
20260902084312 59 292 1.0 2.0 0.00 0.00 0.00 70 1017.9
20260902083812 59 297 1.0 3.0 0.00 0.00 0.00 69 1017.9
20260902083313 60 296 2.0 3.0 0.00 0.00 0.00 69 1017.8
20260902082814 60 0 2.0 3.0 0.00 0.00 0.00 70 1017.8
20260902082312 60 0 2.0 3.0 0.00 0.00 0.00 71 1017.6
20260902081813 60 0 1.0 2.0 0.00 0.00 0.00 70 1017.5
20260902081312 60 0 1.0 2.0 0.00 0.00 0.00 69 1017.5
20260902080813 60 297 1.0 2.0 0.00 0.00 0.00 70 1017.5
20260902080312 60 0 1.0 2.0 0.00 0.00 0.00 70 1017.6
20260902075813 60 0 0.0 2.0 0.00 0.00 0.00 70 1017.8
20260902075311 60 0 0.0 2.0 0.00 0.00 0.00 71 1017.9
20260902074811 60 296 1.0 2.0 0.00 0.00 0.00 71 1017.9
20260902074311 60 0 1.0 2.0 0.00 0.00 0.00 72 1017.9
20260902073811 61 0 0.0 2.0 0.00 0.00 0.00 72 1017.9
20260902073310 61 0 0.0 2.0 0.00 0.00 0.00 71 1017.8
20260902072812 61 0 0.0 1.0 0.00 0.00 0.00 72 1017.9
20260902072311 61 0 0.0 0.0 0.00 0.00 0.00 73 1017.9
20260902071811 61 0 0.0 1.0 0.00 0.00 0.00 72 1018.0
20260902071318 62 0 0.0 2.0 0.00 0.01 0.00 73 1017.9
20260902071311 61 0 0.0 2.0 0.00 0.00 0.00 71 1017.9
20260902070810 61 0 0.0 2.0 0.00 0.01 0.00 72 1017.9
20260902065812 62 300 1.0 2.0 0.00 0.01 0.00 73 1017.9
20260902065541 62 0 1.0 2.0 0.00 0.01 0.00 73 1017.9
20260902064811 62 0 1.0 2.0 0.00 0.01 0.00 72 1018.0
20260902064311 62 0 0.0 2.0 0.00 0.01 0.00 73 1018.0
20260902063812 62 0 0.0 2.0 0.00 0.01 0.00 72 1018.0
20260902063310 62 0 0.0 2.0 0.00 0.01 0.00 73 1017.9
20260902062811 62 0 0.0 0.0 0.00 0.01 0.00 72 1017.9
20260902062311 62 0 0.0 0.0 0.00 0.01 0.00 71 1018.0
20260902061811 62 0 0.0 0.0 0.00 0.01 0.00 71 1018.0
20260902061310 63 0 0.0 0.0 0.00 0.01 0.00 72 1017.9
20260902060808 63 0 0.0 0.0 0.00 0.01 0.00 71 1018.0
20260902060308 63 0 0.0 0.0 0.00 0.01 0.00 69 1018.0
20260902060039 63 0 0.0 0.0 0.00 0.01 0.01 68 1018.0
20260902055307 63 0 0.0 0.0 0.00 0.01 0.01 68 1018.1
20260902054806 64 0 0.0 0.0 0.00 0.01 0.01 70 1018.1
20260902054304 64 0 0.0 0.0 0.00 0.01 0.01 69 1017.9
20260902053805 64 0 0.0 1.0 0.00 0.01 0.01 67 1018.0
20260902053304 64 0 0.0 1.0 0.00 0.01 0.01 66 1018.0
20260902053034 64 0 0.0 2.0 0.00 0.01 0.01 66 1018.0
20260902052306 64 0 0.0 2.0 0.00 0.01 0.01 66 1018.1
20260902051803 64 0 0.0 2.0 0.00 0.01 0.01 67 1018.0
20260902051304 64 0 0.0 1.0 0.00 0.01 0.01 65 1017.9
20260902050802 64 0 0.0 0.0 0.00 0.01 0.01 65 1017.9
20260902050303 65 0 0.0 0.0 0.00 0.01 0.01 64 1017.8
20260902045804 65 0 0.0 1.0 0.00 0.01 0.01 65 1017.9
20260902045306 65 0 0.0 1.0 0.00 0.01 0.01 65 1017.9
20260902044802 65 0 0.0 0.0 0.00 0.01 0.01 64 1018.0
20260902044303 66 0 0.0 0.0 0.00 0.01 0.01 68 1018.1
20260902043802 66 0 0.0 2.0 0.00 0.01 0.01 65 1018.1
20260902043301 66 272 0.0 2.0 0.00 0.01 0.01 66 1018.1
20260902042800 66 0 0.0 2.0 0.00 0.02 0.01 68 1018.0
20260902042258 66 278 0.0 2.0 0.00 0.02 0.01 66 1018.0
20260902041757 66 278 0.0 2.0 0.00 0.02 0.01 67 1018.0
20260902041257 66 0 1.0 3.0 0.00 0.03 0.01 67 1018.0
20260902040756 66 279 0.0 3.0 0.00 0.03 0.01 67 1018.1
20260902040526 67 0 0.0 0.0 0.00 0.04 0.01 66 1017.9
20260902035754 67 0 0.0 0.0 0.00 0.04 0.01 65 1017.8
20260902035526 67 0 0.0 3.0 0.00 0.04 0.01 65 1017.6
20260902034752 67 0 0.0 3.0 0.00 0.04 0.01 63 1017.6
20260902034249 67 0 0.0 2.0 0.00 0.04 0.01 59 1017.5
20260902033748 67 0 0.0 0.0 0.00 0.04 0.01 58 1017.4
20260902033248 67 0 0.0 0.0 0.00 0.04 0.01 56 1017.5
20260902032748 68 0 0.0 2.0 0.00 0.04 0.01 58 1017.5
20260902032246 68 0 0.0 2.0 0.00 0.04 0.01 57 1017.4
20260902032018 69 0 0.0 2.0 0.00 0.04 0.01 61 1017.3
20260902031246 69 0 0.0 2.0 0.00 0.04 0.01 55 1017.3
20260902030745 69 0 0.0 2.0 0.00 0.04 0.01 53 1017.3
20260902030245 70 0 0.0 2.0 0.00 0.04 0.01 54 1017.2
20260902025745 70 0 0.0 1.0 0.00 0.04 0.01 53 1017.2
20260902025245 70 0 0.0 0.0 0.00 0.04 0.01 54 1017.2
20260902024742 70 0 0.0 0.0 0.00 0.04 0.01 54 1017.1
20260902024243 70 0 0.0 0.0 0.00 0.04 0.01 53 1016.9
20260902023742 71 0 0.0 0.0 0.00 0.04 0.01 52 1016.8
20260902023243 71 0 0.0 0.0 0.00 0.04 0.01 52 1016.8
20260902022744 71 0 0.0 0.0 0.00 0.04 0.01 54 1016.7
20260902022242 72 0 0.0 0.0 0.00 0.04 0.01 52 1016.7
20260902021744 72 0 0.0 3.0 0.00 0.04 0.01 52 1016.7
20260902021511 73 0 1.0 3.0 0.00 0.04 0.01 52 1016.7
20260902020740 74 339 0.0 2.0 0.00 0.04 0.01 52 1016.6
20260902020241 74 0 0.0 0.0 0.00 0.04 0.01 53 1016.6
20260902015741 75 335 0.0 0.0 0.00 0.04 0.01 51 1016.6
20260902015238 76 0 0.0 0.0 0.00 0.04 0.01 46 1016.6
20260902014739 76 0 0.0 2.0 0.00 0.04 0.01 43 1016.6
20260902014239 77 0 0.0 2.0 0.00 0.04 0.01 41 1016.6
20260902013739 77 0 1.0 5.0 0.00 0.04 0.01 41 1016.5
20260902013238 78 0 2.0 5.0 0.00 0.04 0.01 41 1016.5
20260902012738 78 0 2.0 5.0 0.00 0.04 0.01 41 1016.5
20260902012507 79 0 1.0 6.0 0.00 0.04 0.01 40 1016.4
20260902011737 79 0 1.0 6.0 0.00 0.04 0.01 39 1016.2
20260902011509 80 0 1.0 7.0 0.00 0.04 0.01 38 1016.4
20260902010735 80 0 2.0 7.0 0.00 0.04 0.01 38 1016.2
20260902010234 80 0 3.0 7.0 0.00 0.04 0.01 38 1016.4
20260902005734 80 0 3.0 6.0 0.00 0.04 0.01 39 1016.4